TIFM7: Elk River, Tiff City, MO

Data processed at Tue Jan 16 2018 23:55


All information presented herein is the property of the government of the United States of America and may be revised or deleted at any time without prior notice.
Dissemination of this information without the expressed written consent of the Public Affairs Office, Tulsa District U.S. Army Corps of Engineers is strictly prohibited.
These data are gathered electronically and, as presented, have not undergone any form of quality control. These data are not guaranteed to be valid or correct.
Go to home page.
Go to station list.

Upstream stations:

Downstream station:
Previous Day
Next Day
Current Day
    
SHEF ID:       TIFM7     Elk River near Tiff City, Mo
STATION TYPE:  

               PRECIP     STAGE  STAGE(2)  RIV-FLOW   VOLTAGE
                   in        ft        ft       cfs      volt
              Ccp-Rev   Ccp-Rev   Ccp-Rev   Ccp-Rev   Ccp-Rev
(US/Central)
01/14 00:00      0.00      2.71      2.71       187     12.80
01/14 01:00      0.00      2.71      2.71       187     12.70
01/14 02:00      0.00      2.71      2.71       187     12.70
01/14 03:00      0.00      2.71      2.70       187     12.70
01/14 04:00      0.00      2.71      2.70       187     12.70
01/14 05:00      0.00      2.71      2.70       187     12.70
01/14 06:00      0.00      2.70      2.70       184     12.70
01/14 07:00      0.00      2.70      2.70       184     12.70
01/14 08:00      0.00      2.70      2.69       184     12.70
01/14 09:00      0.00      2.70      2.68       184     12.70
01/14 10:00      0.00      2.70      2.70       184     12.80
01/14 11:00      0.00      2.70      2.69       184     13.10
01/14 12:00      0.00      2.70      2.67       184     13.30
01/14 13:00      0.00      2.70      2.65       184     13.20
01/14 14:00      0.00      2.70      2.67       184     13.10
01/14 15:00      0.00      2.69      2.67       182     13.00
01/14 16:00      0.00      2.70      2.67       184     12.90
01/14 17:00      0.00      2.69      2.68       182     12.80
01/14 18:00      0.00      2.69      2.68       182     12.80
01/14 19:00      0.00      2.69      2.68       182     12.70
01/14 20:00      0.00      2.69      2.67       182     12.70
01/14 21:00      0.00      2.69      2.68       182     12.70
01/14 22:00      0.00      2.69      2.67       182     12.70
01/14 23:00      0.00      2.68      2.67       180     12.70